Paynesville, MN

5:20 AM CDT on March 26, 2017 (GMT -0500)
Paynesville

Weather History for KPEX - May, 2014

Change the Weather History Date:

Sunday, May 11, 2014

  Actual Average (KLJF) Record (KLJF)
Temperature  
Mean Temperature 52 °F -  
Max Temperature 59 °F 70 °F 87 °F (1958)
Min Temperature 44 °F 45 °F 30 °F (1981)
Degree Days  
Heating Degree Days 14    
Growing Degree Days 2 (Base 50)    
Moisture  
Dew Point 50 °F    
Average Humidity 88    
Maximum Humidity 100    
Minimum Humidity 71    
Precipitation  
Precipitation 0.27 in - - ()
Sea Level Pressure  
Sea Level Pressure 29.84 in    
Wind  
Wind Speed 4 mph (SW)    
Max Wind Speed 15 mph    
Max Gust Speed 22 mph    
Visibility 9 miles    
Events Rain    
Averages and records for this station are not official NWS values.
T = Trace of Precipitation, MM = Missing Value Source: NWS Daily Summary

Daily Weather History Graph

Daily Weather History Graph

Search for Another Location

Airport or City:

Trip Planner

Search our weather history database for the weather conditions in past years. The results will help you decide how hot, cold, wet, or windy it might be!

Date:

Astronomy

May. 11, 2014 Rise Set
Actual Time 5:53 AM CDT 8:37 PM CDT
Civil Twilight 5:19 AM CDT 9:12 PM CDT
Nautical Twilight 4:36 AM CDT 9:55 PM CDT
Astronomical Twilight 3:46 AM CDT 10:45 PM CDT
Moon 5:25 PM CDT (5/11) 4:09 AM CDT (5/11)
Length of Visible Light 15h 52m
Length of Day
14h 44m
Waxing Gibbous, 89% of the Moon is Illuminated
May 11
Waxing Gibbous
May 14
Full
May 21
Last Quarter
May 28
New
Jun 5
First Quarter

Hourly Weather History & Observations

Time (CDT) Temp. Windchill Dew Point Humidity Pressure Visibility Wind Dir Wind Speed Gust Speed Precip Events Conditions
12:12 AM 50.9 °F - 49.5 °F 95% 29.82 in 10.0 mi SW 6.9 mph - N/A   Clear
12:32 AM 50.2 °F - 49.1 °F 96% 29.82 in 10.0 mi SW 6.9 mph - N/A   Clear
12:52 AM 49.8 °F - 49.1 °F 97% 29.82 in 10.0 mi SW 3.5 mph - N/A   Clear
1:12 AM 49.6 °F - 49.1 °F 98% 29.82 in 10.0 mi Calm Calm - N/A   Clear
1:32 AM 49.3 °F - 48.7 °F 98% 29.82 in 10.0 mi SW 3.5 mph - N/A   Clear
1:52 AM 49.1 °F - 48.6 °F 98% 29.82 in 10.0 mi SW 5.8 mph - N/A   Clear
2:12 AM 48.7 °F - 48.4 °F 99% 29.82 in 10.0 mi SW 5.8 mph - N/A   Clear
2:32 AM 48.4 °F - 48.2 °F 99% 29.82 in 10.0 mi Calm Calm - N/A   Clear
2:52 AM 47.5 °F - 47.3 °F 99% 29.82 in 10.0 mi Calm Calm - N/A   Clear
3:12 AM 47.3 °F - 47.5 °F 100% 29.82 in 10.0 mi Calm Calm - N/A   Clear
3:32 AM - - - N/A% 29.81 in 10.0 mi SW 6.9 mph - N/A   Clear
3:52 AM 47.5 °F - 47.7 °F 100% 29.81 in 10.0 mi SW 5.8 mph - N/A   Clear
4:12 AM 47.7 °F - 47.7 °F 100% 29.81 in 10.0 mi SW 5.8 mph - N/A   Clear
4:32 AM 47.3 °F - 46.9 °F 99% 29.81 in 10.0 mi SW 5.8 mph - N/A   Clear
4:52 AM 46.6 °F - 46.6 °F 100% 29.82 in 10.0 mi Calm Calm - N/A   Clear
5:12 AM 44.8 °F 43.3 °F 45.0 °F 100% 29.83 in 7.0 mi SW 3.5 mph - N/A   Clear
5:32 AM - - - N/A% 29.83 in 7.0 mi Calm Calm - N/A   Clear
5:52 AM 45.9 °F 42.9 °F 46.0 °F 100% 29.84 in 7.0 mi SW 5.8 mph - N/A   Clear
6:12 AM 46.0 °F 43.9 °F 46.2 °F 100% 29.85 in 7.0 mi SW 4.6 mph - N/A   Clear
6:32 AM 46.6 °F - 46.8 °F 100% 29.84 in 7.0 mi Calm Calm - N/A   Clear
6:52 AM 47.3 °F - 47.5 °F 100% 29.84 in 7.0 mi Calm Calm - N/A   Clear
7:12 AM 47.7 °F - 47.5 °F 99% 29.83 in 10.0 mi Calm Calm - N/A   Clear
7:32 AM 48.9 °F - 48.2 °F 97% 29.84 in 10.0 mi SW 4.6 mph - N/A   Clear
7:52 AM 50.2 °F - 47.5 °F 90% 29.85 in 10.0 mi Calm Calm - N/A   Clear
8:12 AM 51.1 °F - 47.7 °F 88% 29.87 in 10.0 mi SW 3.5 mph - N/A   Clear
8:32 AM 51.3 °F - 47.8 °F 88% 29.87 in 10.0 mi Calm Calm - N/A   Clear
8:52 AM 52.0 °F - 47.3 °F 84% 29.87 in 10.0 mi Calm Calm - N/A   Clear
9:12 AM 52.5 °F - 47.7 °F 84% 29.88 in 10.0 mi Calm Calm - N/A   Clear
9:32 AM 52.7 °F - 47.8 °F 84% 29.88 in 10.0 mi Calm Calm - N/A   Clear
9:52 AM 53.6 °F - 48.0 °F 81% 29.89 in 10.0 mi Calm Calm - N/A   Clear
10:12 AM 53.6 °F - 48.2 °F 82% 29.89 in 10.0 mi SW 6.9 mph - N/A   Scattered Clouds
10:32 AM 54.3 °F - 48.2 °F 80% 29.90 in 10.0 mi SW 6.9 mph - N/A   Mostly Cloudy
10:52 AM 55.0 °F - 49.3 °F 81% 29.91 in 10.0 mi Calm Calm - N/A   Scattered Clouds
11:12 AM 55.8 °F - 49.8 °F 80% 29.90 in 10.0 mi SW 5.8 mph - N/A   Scattered Clouds
11:32 AM 55.8 °F - 49.6 °F 80% 29.89 in 10.0 mi SW 4.6 mph - N/A   Scattered Clouds
11:52 AM 56.3 °F - 49.6 °F 78% 29.88 in 10.0 mi SW 8.1 mph - N/A   Clear
12:12 PM 55.8 °F - 49.6 °F 80% 29.87 in 10.0 mi SW 6.9 mph - N/A   Clear
12:32 PM 56.8 °F - 51.3 °F 82% 29.87 in 10.0 mi SW 9.2 mph - N/A   Clear
12:52 PM 56.5 °F - 51.1 °F 82% 29.88 in 10.0 mi SW 3.5 mph - N/A   Mostly Cloudy
1:12 PM 57.0 °F - 50.9 °F 80% 29.89 in 10.0 mi Calm Calm - N/A   Overcast
1:32 PM 57.2 °F - 51.1 °F 80% 29.89 in 10.0 mi Calm Calm - N/A   Overcast
1:52 PM 57.7 °F - 51.8 °F 81% 29.89 in 10.0 mi Calm Calm - N/A   Overcast
2:12 PM 58.1 °F - 51.8 °F 80% 29.89 in 10.0 mi Calm Calm - N/A   Overcast
2:32 PM 58.1 °F - 51.3 °F 78% 29.89 in 10.0 mi Calm Calm - N/A   Overcast
2:52 PM 58.5 °F - 51.1 °F 76% 29.89 in 10.0 mi SW 4.6 mph - N/A   Overcast
3:12 PM 59.0 °F - 50.2 °F 73% 29.89 in 10.0 mi Calm Calm - N/A   Overcast
3:32 PM 58.8 °F - 50.9 °F 75% 29.88 in 7.0 mi Calm Calm - N/A   Overcast
3:52 PM 59.2 °F - 50.9 °F 74% 29.87 in 10.0 mi SW 4.6 mph - N/A   Overcast
4:12 PM 59.2 °F - 50.0 °F 72% 29.87 in 10.0 mi Calm Calm - N/A   Overcast
4:32 PM 59.7 °F - 50.4 °F 71% 29.86 in 10.0 mi SW 3.5 mph - N/A   Overcast
4:52 PM 59.5 °F - 50.5 °F 72% 29.85 in 10.0 mi SW 4.6 mph - N/A   Overcast
5:12 PM 59.5 °F - 51.1 °F 74% 29.84 in 10.0 mi Calm Calm - N/A   Overcast
5:32 PM 59.9 °F - 51.4 °F 74% 29.83 in 10.0 mi SW 5.8 mph - N/A   Overcast
5:52 PM 59.9 °F - 52.5 °F 77% 29.82 in 10.0 mi SW 5.8 mph - N/A Rain Light Rain
6:12 PM 59.9 °F - 51.6 °F 74% 29.80 in 10.0 mi SW 8.1 mph - N/A   Overcast
6:32 PM 59.5 °F - 52.2 °F 77% 29.79 in 10.0 mi SW 9.2 mph - N/A   Overcast
6:52 PM 59.0 °F - 51.8 °F 77% 29.79 in 10.0 mi SW 3.5 mph - N/A   Overcast
7:12 PM 58.3 °F - 51.6 °F 78% 29.79 in 10.0 mi SW 4.6 mph - N/A   Overcast
7:32 PM 57.7 °F - 52.0 °F 81% 29.81 in 7.0 mi SW 5.8 mph - 0.01 in Rain Heavy Rain
7:51 PM 56.1 °F - 52.9 °F 89% 29.78 in 7.0 mi SW 6.9 mph - 0.04 in Rain Light Rain
8:12 PM 56.3 °F - 51.6 °F 84% 29.78 in 10.0 mi SW 6.9 mph - N/A   Overcast
8:32 PM 56.1 °F - 51.3 °F 84% 29.81 in 10.0 mi SW 4.6 mph - N/A Rain Light Rain
8:51 PM 55.2 °F - 52.0 °F 89% 29.82 in 10.0 mi SW 9.2 mph - 0.03 in Rain Rain
9:12 PM 54.5 °F - 51.8 °F 91% 29.82 in 10.0 mi SW 12.7 mph 18.4 mph 0.02 in Rain Light Rain
9:32 PM 54.1 °F - 52.0 °F 92% 29.82 in 10.0 mi SW 9.2 mph - 0.02 in Rain Light Rain
9:52 PM 53.6 °F - 51.8 °F 94% 29.82 in 10.0 mi SW 10.4 mph 19.6 mph 0.02 in Rain Light Rain
10:12 PM 53.6 °F - 51.8 °F 94% 29.84 in 10.0 mi SW 9.2 mph 19.6 mph N/A Rain Light Rain
10:32 PM 53.1 °F - 51.8 °F 95% 29.87 in 5.0 mi SW 3.5 mph - 0.04 in Rain Rain
10:52 PM 52.2 °F - 51.6 °F 98% 29.85 in 7.0 mi SW 8.1 mph - 0.09 in Rain Rain
11:12 PM 52.0 °F - 51.4 °F 98% 29.84 in 7.0 mi SW 10.4 mph 18.4 mph 0.03 in Rain Rain
11:32 PM 51.8 °F - 51.1 °F 97% 29.81 in 7.0 mi SW 15.0 mph 19.6 mph 0.06 in Rain Rain
11:52 PM 51.3 °F - 50.9 °F 99% 29.79 in 7.0 mi SW 10.4 mph 21.9 mph 0.09 in Rain Rain